[[{"header":{"parameterUnit":"m.s-1","parameterCategory":1,"la1":30.2991,"la2":30.254,"lo1":-89.0895,"lo2":-89.0444,"dy":0.0017,"dx":0.0017,"nx":28,"ny":28,"refTime":"2024-07-22T03:00:00:Z","depth":0,"parameterNumber":2,"parameterNumberName":"U-component_of_WINDS"},"data":[0,0,0,0,0,0,0,0,0,0,0,0,0,0,0,0,0,0,0,0,0,0,0,0,0,0,0,0,0,0,0,0,0,0,0,0,0,0,0,0,0,0,0,0,0,0,0,0,0,0,0,0,0,0,0,0,0,0,1.6475,1.6475,0,1.6512,1.6512,1.6513,1.654,1.654,1.654,1.6541,1.6578,1.6578,1.6579,0,0,0,0,0,0,0,0,0,0,0,0,0,1.6428,1.6429,1.6475,1.6475,1.6476,1.6512,1.6512,1.6513,1.654,1.654,1.654,1.6541,1.6577,1.6578,1.6579,0,0,0,0,0,0,0,0,0,0,0,0,0,1.6455,1.6429,1.6475,1.6494,1.6496,1.6512,1.6512,1.6513,1.654,1.654,1.654,1.6541,1.6577,1.6578,1.6579,1.6579,0,0,1.6583,1.6583,0,0,0,0,0,0,0,0,1.6454,1.6457,1.649,1.6492,1.6495,1.6522,1.6509,1.6535,1.654,1.6523,1.6541,1.6541,1.6559,1.6561,1.6568,1.6581,1.6583,1.6583,1.6584,1.6584,1.6585,0,0,0,0,0,0,0,1.6452,1.6455,1.6489,1.6491,1.6493,1.65,1.6505,1.6514,1.6538,1.6524,1.6527,1.6531,1.656,1.6566,1.6569,1.6583,1.6583,1.6584,1.6585,1.6585,1.66,1.66,0,0,0,0,0,0,1.6447,1.6454,1.6488,1.6491,1.6475,1.6501,1.6506,1.6513,1.6538,1.6543,1.653,1.6532,1.6564,1.6567,1.657,1.6572,1.6584,1.6585,1.6586,1.66,1.66,1.6599,0,0,0,0,0,0,1.6446,1.645,1.6487,1.6473,1.6478,1.6501,1.6509,1.6513,1.6519,1.6543,1.6547,1.6532,1.6565,1.6568,1.6577,1.6574,1.6586,1.6587,1.6601,1.66,1.66,1.6576,0,0,0,0,0,0,1.6444,1.6449,1.6449,1.6473,1.6479,1.6493,1.6509,1.6514,1.6521,1.6524,1.6546,1.655,1.6565,1.6575,1.6578,1.6576,1.6588,1.6601,1.66,1.66,1.6577,1.6575,1.6573,0,0,0,0,0,1.6443,1.6441,1.6449,1.6453,1.6479,1.6493,1.6496,1.6514,1.6521,1.6521,1.6537,1.6549,1.6574,1.6576,1.658,1.6577,1.6601,1.66,1.66,1.6578,1.6575,1.6573,0,0,0,0,0,0,1.6416,1.6444,1.6454,1.6459,1.6473,1.6497,1.6498,1.651,1.6523,1.6524,1.6546,1.6551,1.6557,1.6568,1.657,1.6579,1.6589,1.6589,1.6572,1.6569,1.6567,1.6564,1.6589,0,0,0,0,0,1.6411,1.6419,1.6444,1.6446,1.6453,1.6474,1.6481,1.6494,1.6509,1.6515,1.6531,1.6545,1.6557,1.6564,1.6575,1.6579,1.6585,1.658,1.6577,1.6576,1.6575,1.6579,1.6577,1.6597,1.6597,1.6597,0,0,1.64,1.6416,1.642,1.6441,1.6454,1.6463,1.6479,1.6487,1.6494,1.6516,1.6526,1.6538,1.6556,1.6563,1.6566,1.6572,1.6571,1.6575,1.6573,1.6574,1.6578,1.6576,1.6575,1.6597,1.6597,1.6597,0,0,1.6385,1.6398,1.6402,1.6414,1.6434,1.6448,1.6449,1.6471,1.648,1.649,1.6508,1.6516,1.6535,1.6547,1.6556,1.6547,1.6559,1.655,1.6538,1.6542,1.654,1.6539,1.6536,1.6535,1.655,1.655,1.6549,0,1.6369,1.6383,1.6402,1.641,1.6419,1.644,1.6445,1.6456,1.6478,1.6483,1.649,1.6514,1.6528,1.6538,1.6536,1.6542,1.6544,1.6547,1.6539,1.6538,1.6537,1.6534,1.6533,1.6548,1.6548,1.6549,1.6549,0,1.6362,1.6372,1.6373,1.6394,1.6403,1.6409,1.643,1.6437,1.6449,1.6463,1.6474,1.6491,1.6507,1.651,1.6522,1.6522,1.6525,1.6535,1.6545,1.6533,1.6532,1.6531,1.6547,1.6547,1.6547,1.6548,0,0,1.633,1.6363,1.6363,1.6373,1.6397,1.6404,1.6412,1.6428,1.6434,1.6448,1.6455,1.6471,1.6481,1.649,1.6504,1.6507,1.65,1.6517,1.6517,1.6513,1.6502,1.6494,1.6493,1.6508,1.6508,1.6508,1.6501,0,1.6319,1.6333,1.6352,1.636,1.637,1.6391,1.6397,1.6412,1.6426,1.6436,1.6451,1.6462,1.6474,1.648,1.6484,1.65,1.6498,1.6501,1.6515,1.6515,1.651,1.6492,1.6484,1.6476,1.65,1.65,1.65,0,1.6307,1.6321,1.633,1.6354,1.6359,1.6364,1.6381,1.639,1.6408,1.6418,1.6429,1.6444,1.6454,1.6463,1.6477,1.6478,1.6486,1.6494,1.6495,1.6496,1.6506,1.6493,1.6474,1.6472,1.6499,1.6499,1.6499,0,1.6283,1.6304,1.6313,1.6321,1.6349,1.6352,1.6364,1.6382,1.6391,1.6406,1.6412,1.6427,1.6435,1.6447,1.6466,1.6471,1.6478,1.6489,1.6486,1.6486,1.6486,1.6486,1.6467,1.6491,1.6491,1.6491,1.6491,0,1.6268,1.6273,1.6303,1.6308,1.6314,1.6336,1.6342,1.6356,1.6372,1.638,1.64,1.6407,1.6432,1.6442,1.6457,1.6466,1.647,1.6478,1.6482,1.6476,1.6475,1.6481,1.6482,1.6491,1.6491,1.6491,1.6491,0,1.6242,1.6262,1.6273,1.6299,1.6305,1.6309,1.6331,1.6337,1.6352,1.6363,1.6366,1.639,1.6404,1.6424,1.6444,1.6454,1.6461,1.6467,1.6454,1.6457,1.6453,1.6453,1.6437,1.6437,1.6461,1.646,1.646,0,1.6231,1.6236,1.6262,1.6269,1.628,1.6292,1.6301,1.6323,1.6332,1.6353,1.6357,1.6372,1.6385,1.6406,1.6425,1.6441,1.6448,1.6441,1.645,1.6444,1.6448,1.6447,1.6448,1.6439,1.6438,1.6438,1.6438,0,1.621,1.622,1.6232,1.6249,1.626,1.6273,1.6288,1.6293,1.6319,1.6328,1.6342,1.6352,1.6373,1.6388,1.6406,1.6418,1.6432,1.6435,1.6435,1.6429,1.6422,1.6426,1.6449,1.6435,1.6435,1.6436,1.6436,1.6436,1.6191,1.6196,1.6216,1.623,1.6243,1.6257,1.6264,1.6281,1.6293,1.6312,1.6324,1.6338,1.6357,1.6383,1.6395,1.6406,1.6412,1.6412,1.6412,1.6412,1.641,1.6421,1.6409,1.641,1.641,1.641,1.641,0,1.6171,1.6185,1.6197,1.6218,1.6229,1.6242,1.6259,1.6268,1.628,1.6296,1.6309,1.6326,1.6341,1.6362,1.6378,1.6384,1.639,1.6387,1.6387,1.639,1.6404,1.6402,1.6381,1.6381,1.6381,1.6381,1.6381,1.6381,1.6161,1.6171,1.6184,1.6201,1.6215,1.6229,1.6238,1.6251,1.6264,1.6282,1.6295,1.6309,1.6327,1.6345,1.636,1.6366,1.6371,1.6366,1.6373,1.6386,1.6388,1.6391,1.6389,1.6366,1.6366,1.6358,1.6358,1.6358]},{"header":{"parameterUnit":"m.s-1","parameterCategory":1,"la1":30.2991,"la2":30.254,"lo1":-89.0895,"lo2":-89.0444,"dy":0.0017,"dx":0.0017,"nx":28,"ny":28,"refTime":"2024-07-22T03:00:00:Z","depth":0,"parameterNumber":3,"parameterNumberName":"V-component_of_WINDS"},"data":[0,0,0,0,0,0,0,0,0,0,0,0,0,0,0,0,0,0,0,0,0,0,0,0,0,0,0,0,0,0,0,0,0,0,0,0,0,0,0,0,0,0,0,0,0,0,0,0,0,0,0,0,0,0,0,0,0,0,-0.0979,-0.098,0,-0.1044,-0.1045,-0.1045,-0.1054,-0.1053,-0.1053,-0.1052,-0.112,-0.1122,-0.1124,0,0,0,0,0,0,0,0,0,0,0,0,0,-0.0864,-0.0866,-0.0979,-0.098,-0.0981,-0.1044,-0.1045,-0.1046,-0.1054,-0.1053,-0.1052,-0.1052,-0.1119,-0.1122,-0.1125,0,0,0,0,0,0,0,0,0,0,0,0,0,-0.092,-0.0867,-0.0979,-0.0992,-0.0994,-0.1044,-0.1045,-0.1046,-0.1054,-0.1053,-0.1052,-0.1051,-0.1118,-0.1121,-0.1125,-0.1166,0,0,-0.1136,-0.1137,0,0,0,0,0,0,0,0,-0.0917,-0.0924,-0.099,-0.0992,-0.0994,-0.104,-0.1029,-0.1086,-0.1054,-0.1031,-0.1052,-0.1051,-0.1094,-0.1099,-0.1114,-0.1169,-0.1172,-0.1136,-0.1138,-0.114,-0.1141,0,0,0,0,0,0,0,-0.0913,-0.0922,-0.1005,-0.0991,-0.0993,-0.0996,-0.1003,-0.104,-0.1067,-0.1033,-0.1034,-0.1042,-0.1095,-0.111,-0.1115,-0.1173,-0.1136,-0.1139,-0.1141,-0.1143,-0.1266,-0.1267,0,0,0,0,0,0,-0.0907,-0.0918,-0.1003,-0.1007,-0.0952,-0.0999,-0.1006,-0.1026,-0.1067,-0.1072,-0.1042,-0.1042,-0.1105,-0.1111,-0.1118,-0.1169,-0.114,-0.1143,-0.1145,-0.1265,-0.1266,-0.1267,0,0,0,0,0,0,-0.0904,-0.0914,-0.1,-0.0963,-0.0974,-0.1002,-0.1024,-0.1028,-0.1043,-0.1074,-0.1079,-0.1053,-0.1104,-0.1113,-0.1154,-0.1171,-0.1145,-0.1148,-0.1263,-0.1265,-0.1267,-0.1271,0,0,0,0,0,0,-0.0901,-0.0913,-0.0928,-0.0963,-0.0976,-0.1034,-0.1025,-0.103,-0.1049,-0.1049,-0.1085,-0.109,-0.1104,-0.1148,-0.1157,-0.1176,-0.1151,-0.1262,-0.1264,-0.1266,-0.1269,-0.1272,-0.1275,0,0,0,0,0,-0.0897,-0.0927,-0.0929,-0.0939,-0.0995,-0.1035,-0.1043,-0.1058,-0.105,-0.1066,-0.1086,-0.1089,-0.1168,-0.1153,-0.1163,-0.1182,-0.1261,-0.1263,-0.1266,-0.1268,-0.1272,-0.1275,0,0,0,0,0,0,-0.0894,-0.0932,-0.0934,-0.0977,-0.1003,-0.1037,-0.1057,-0.1062,-0.1091,-0.1089,-0.1108,-0.1116,-0.1156,-0.1173,-0.1156,-0.1224,-0.1214,-0.1218,-0.1212,-0.1216,-0.1219,-0.1214,-0.1154,0,0,0,0,0,-0.0898,-0.0926,-0.0958,-0.0993,-0.1006,-0.1029,-0.1047,-0.1057,-0.1085,-0.1096,-0.1119,-0.1146,-0.1177,-0.1197,-0.1228,-0.1272,-0.128,-0.129,-0.1293,-0.1295,-0.1299,-0.1325,-0.133,-0.1275,-0.1275,-0.1275,0,0,-0.0907,-0.0931,-0.0948,-0.0993,-0.1014,-0.1044,-0.1038,-0.107,-0.1093,-0.1101,-0.1141,-0.1159,-0.1191,-0.1234,-0.1254,-0.1249,-0.1316,-0.1299,-0.13,-0.1303,-0.1328,-0.1333,-0.1338,-0.1277,-0.1277,-0.1277,0,0,-0.0939,-0.096,-0.0991,-0.1013,-0.1045,-0.1061,-0.1068,-0.1102,-0.1114,-0.1154,-0.1161,-0.1189,-0.1242,-0.1265,-0.1283,-0.1325,-0.1329,-0.1334,-0.135,-0.1375,-0.1379,-0.1383,-0.1399,-0.1404,-0.1338,-0.1338,-0.1338,0,-0.0946,-0.0991,-0.1006,-0.1038,-0.1058,-0.1067,-0.1099,-0.1119,-0.116,-0.1174,-0.1168,-0.1236,-0.1258,-0.1307,-0.1317,-0.1331,-0.1341,-0.133,-0.1377,-0.1381,-0.1385,-0.14,-0.1406,-0.1339,-0.1339,-0.1339,-0.1338,0,-0.0999,-0.103,-0.1052,-0.1091,-0.1113,-0.1145,-0.1166,-0.1187,-0.1195,-0.1211,-0.1253,-0.128,-0.1316,-0.1329,-0.1337,-0.1379,-0.1376,-0.1373,-0.1363,-0.1391,-0.1405,-0.1411,-0.1339,-0.1339,-0.1339,-0.1339,0,0,-0.103,-0.1078,-0.1086,-0.1104,-0.1141,-0.1166,-0.1198,-0.1234,-0.1252,-0.128,-0.1308,-0.1354,-0.1352,-0.1373,-0.1384,-0.1405,-0.1438,-0.1401,-0.1402,-0.1407,-0.1488,-0.1489,-0.1496,-0.1441,-0.1442,-0.1443,-0.1485,0,-0.1067,-0.1125,-0.114,-0.119,-0.122,-0.1229,-0.1258,-0.1284,-0.13,-0.1329,-0.1347,-0.1379,-0.1374,-0.1387,-0.1409,-0.1429,-0.1454,-0.1426,-0.1468,-0.147,-0.146,-0.1503,-0.1505,-0.1544,-0.1491,-0.1492,-0.1492,0,-0.1117,-0.1146,-0.1199,-0.1233,-0.1246,-0.1272,-0.1306,-0.1332,-0.1363,-0.1373,-0.1397,-0.1406,-0.1442,-0.1429,-0.1479,-0.146,-0.1478,-0.1491,-0.1493,-0.1497,-0.1483,-0.151,-0.1556,-0.1562,-0.1502,-0.1501,-0.15,0,-0.1136,-0.1188,-0.1227,-0.1242,-0.1282,-0.13,-0.1318,-0.1347,-0.1368,-0.1398,-0.1412,-0.1446,-0.1464,-0.1491,-0.1509,-0.1498,-0.1558,-0.1547,-0.1568,-0.1568,-0.1581,-0.158,-0.1631,-0.1591,-0.1591,-0.1591,-0.1591,0,-0.1176,-0.1208,-0.1236,-0.126,-0.1296,-0.1314,-0.135,-0.1368,-0.1394,-0.1422,-0.1432,-0.1458,-0.1481,-0.151,-0.1525,-0.1565,-0.1573,-0.1583,-0.1587,-0.1582,-0.1581,-0.1595,-0.1593,-0.1593,-0.1592,-0.1592,-0.1592,0,-0.1202,-0.1222,-0.1265,-0.13,-0.131,-0.1335,-0.1365,-0.1389,-0.1406,-0.1442,-0.1451,-0.1478,-0.1514,-0.1534,-0.1579,-0.1589,-0.1633,-0.1635,-0.1623,-0.1625,-0.1645,-0.1643,-0.1708,-0.1718,-0.1671,-0.1671,-0.1671,0,-0.1227,-0.1251,-0.1289,-0.1308,-0.1326,-0.1357,-0.1379,-0.1397,-0.1419,-0.1456,-0.1476,-0.1512,-0.1542,-0.1598,-0.1622,-0.1657,-0.166,-0.168,-0.1665,-0.1661,-0.1661,-0.166,-0.1663,-0.1683,-0.1683,-0.1684,-0.1684,0,-0.1268,-0.1277,-0.1306,-0.134,-0.1365,-0.1393,-0.142,-0.1436,-0.1459,-0.1483,-0.152,-0.1543,-0.1589,-0.1625,-0.1661,-0.168,-0.1687,-0.1688,-0.1696,-0.1692,-0.1684,-0.1689,-0.163,-0.1687,-0.1687,-0.1686,-0.1686,-0.1686,-0.1294,-0.1317,-0.1348,-0.1381,-0.1404,-0.1429,-0.1454,-0.1474,-0.1504,-0.1543,-0.1552,-0.1591,-0.1622,-0.1671,-0.1692,-0.1722,-0.1719,-0.1729,-0.1732,-0.1734,-0.1735,-0.1678,-0.1729,-0.1729,-0.1729,-0.1729,-0.1729,0,-0.1337,-0.1357,-0.1387,-0.1425,-0.1452,-0.1455,-0.1486,-0.1508,-0.1541,-0.1569,-0.1598,-0.1641,-0.1676,-0.1703,-0.1739,-0.1759,-0.1763,-0.1768,-0.1767,-0.1771,-0.1735,-0.1726,-0.1764,-0.1764,-0.1764,-0.1764,-0.1764,-0.1764,-0.1362,-0.1401,-0.1414,-0.1465,-0.1485,-0.1522,-0.154,-0.1564,-0.1586,-0.1633,-0.1662,-0.1679,-0.1707,-0.1746,-0.1779,-0.1786,-0.1799,-0.1804,-0.1812,-0.1778,-0.1774,-0.177,-0.1761,-0.1806,-0.1807,-0.1845,-0.1846,-0.1846]}]]